Time,TemperatureF,DewpointF,PressureIn,WindDirection,WindDirectionDegrees,WindSpeedMPH,WindSpeedGustMPH,Humidity,HourlyPrecipIn,Conditions,Clouds,dailyrainin,SolarRadiationWatts/m^2,SoftwareType,DateUTC
2013-04-07 00:00:00,28.3,17.0,30.22,SSE,163,0.0,1.0,62,0.00,,,0.00,0.00,VWS V14.00,2013-04-07 04:00:00,
2013-04-07 00:01:00,28.3,17.3,30.22,SSE,163,0.0,1.0,63,0.00,,,0.00,0.00,VWS V14.00,2013-04-07 04:01:00,
2013-04-07 00:06:00,28.3,17.3,30.22,SSE,163,0.0,2.0,63,0.00,,,0.00,0.00,VWS V14.00,2013-04-07 04:06:00,
2013-04-07 00:11:00,28.3,17.0,30.22,SSE,163,0.0,0.0,62,0.00,,,0.00,0.00,VWS V14.00,2013-04-07 04:11:00,
2013-04-07 00:16:00,28.4,16.3,30.22,SSE,163,0.0,0.0,60,0.00,,,0.00,0.00,VWS V14.00,2013-04-07 04:16:00,
2013-04-07 00:21:00,28.5,16.4,30.23,SSE,163,0.0,0.0,60,0.00,,,0.00,0.00,VWS V14.00,2013-04-07 04:21:00,
2013-04-07 00:26:00,28.8,17.1,30.22,SSE,163,0.0,0.0,61,0.00,,,0.00,0.00,VWS V14.00,2013-04-07 04:26:00,
2013-04-07 00:31:00,29.0,18.0,30.21,SSE,163,0.0,1.0,63,0.00,,,0.00,0.00,VWS V14.00,2013-04-07 04:31:00,
2013-04-07 00:36:00,29.2,16.7,30.22,South,169,2.0,4.0,59,0.00,,,0.00,0.00,VWS V14.00,2013-04-07 04:36:00,
2013-04-07 00:41:00,29.4,17.2,30.22,South,170,0.0,1.0,60,0.00,,,0.00,0.00,VWS V14.00,2013-04-07 04:41:00,
2013-04-07 00:46:00,29.7,18.3,30.21,South,170,1.0,1.0,62,0.00,,,0.00,0.00,VWS V14.00,2013-04-07 04:46:00,
2013-04-07 00:51:00,29.8,18.4,30.22,South,170,0.0,0.0,62,0.00,,,0.00,0.00,VWS V14.00,2013-04-07 04:51:00,
2013-04-07 00:57:00,29.9,18.1,30.22,South,170,0.0,0.0,61,0.00,,,0.00,0.00,VWS V14.00,2013-04-07 04:57:00,
2013-04-07 01:02:00,29.9,17.3,30.21,South,170,0.0,0.0,59,0.00,,,0.00,0.00,VWS V14.00,2013-04-07 05:02:00,
2013-04-07 01:07:00,29.9,16.5,30.21,South,170,0.0,0.0,57,0.00,,,0.00,0.00,VWS V14.00,2013-04-07 05:07:00,
2013-04-07 01:12:00,30.0,15.8,30.21,South,170,0.0,0.0,55,0.00,,,0.00,0.00,VWS V14.00,2013-04-07 05:12:00,
2013-04-07 01:17:00,30.0,14.5,30.20,South,170,0.0,0.0,52,0.00,,,0.00,0.00,VWS V14.00,2013-04-07 05:17:00,
2013-04-07 01:22:00,30.1,14.2,30.20,South,170,0.0,0.0,51,0.00,,,0.00,0.00,VWS V14.00,2013-04-07 05:22:00,
2013-04-07 01:27:00,30.2,14.3,30.20,South,170,0.0,0.0,51,0.00,,,0.00,0.00,VWS V14.00,2013-04-07 05:27:00,
2013-04-07 01:32:00,30.4,16.2,30.19,South,170,0.0,0.0,55,0.00,,,0.00,0.00,VWS V14.00,2013-04-07 05:32:00,
2013-04-07 01:37:00,30.5,17.1,30.19,South,170,0.0,0.0,57,0.00,,,0.00,0.00,VWS V14.00,2013-04-07 05:37:00,
2013-04-07 01:42:00,30.5,16.7,30.19,South,170,0.0,1.0,56,0.00,,,0.00,0.00,VWS V14.00,2013-04-07 05:42:00,
2013-04-07 01:47:00,30.5,17.1,30.18,South,176,0.0,1.0,57,0.00,,,0.00,0.00,VWS V14.00,2013-04-07 05:47:00,
2013-04-07 01:52:00,30.5,17.1,30.18,WSW,240,2.0,3.0,57,0.00,,,0.00,0.00,VWS V14.00,2013-04-07 05:52:00,
2013-04-07 01:57:00,30.4,17.0,30.17,WSW,240,0.0,1.0,57,0.00,,,0.00,0.00,VWS V14.00,2013-04-07 05:57:00,
2013-04-07 02:02:00,30.4,17.0,30.17,WSW,240,1.0,1.0,57,0.00,,,0.00,0.00,VWS V14.00,2013-04-07 06:02:00,
2013-04-07 02:07:00,30.3,16.5,30.17,WSW,240,0.0,2.0,56,0.00,,,0.00,0.00,VWS V14.00,2013-04-07 06:07:00,
2013-04-07 02:12:00,30.3,16.5,30.17,WSW,240,3.0,3.0,56,0.00,,,0.00,0.00,VWS V14.00,2013-04-07 06:12:00,
2013-04-07 02:17:00,30.3,16.5,30.16,West,269,5.0,5.0,56,0.00,,,0.00,0.00,VWS V14.00,2013-04-07 06:17:00,
2013-04-07 02:22:00,30.6,15.1,30.16,WSW,239,2.0,4.0,52,0.00,,,0.00,0.00,VWS V14.00,2013-04-07 06:22:00,
2013-04-07 02:27:00,30.8,14.8,30.16,SW,232,0.0,4.0,51,0.00,,,0.00,0.00,VWS V14.00,2013-04-07 06:27:00,
2013-04-07 02:32:00,31.1,16.0,30.16,SW,232,0.0,2.0,53,0.00,,,0.00,0.00,VWS V14.00,2013-04-07 06:32:00,
2013-04-07 02:37:00,31.4,16.7,30.15,WNW,284,3.0,4.0,54,0.00,,,0.00,0.00,VWS V14.00,2013-04-07 06:37:00,
2013-04-07 02:43:00,31.6,15.1,30.15,West,263,3.0,5.0,50,0.00,,,0.00,0.00,VWS V14.00,2013-04-07 06:43:00,
2013-04-07 02:48:00,31.9,14.9,30.15,West,266,5.0,7.0,49,0.00,,,0.00,0.00,VWS V14.00,2013-04-07 06:48:00,
2013-04-07 02:53:00,32.2,15.2,30.15,WSW,252,5.0,9.0,49,0.00,,,0.00,0.00,VWS V14.00,2013-04-07 06:53:00,
2013-04-07 02:58:00,32.7,14.2,30.15,WSW,240,10.0,11.0,46,0.00,,,0.00,0.00,VWS V14.00,2013-04-07 06:58:00,
2013-04-07 03:03:00,33.2,13.7,30.14,West,261,7.0,9.0,44,0.00,,,0.00,0.00,VWS V14.00,2013-04-07 07:03:00,
2013-04-07 03:08:00,33.6,14.5,30.14,WSW,256,1.0,7.0,45,0.00,,,0.00,0.00,VWS V14.00,2013-04-07 07:08:00,
2013-04-07 03:13:00,33.8,14.2,30.14,WSW,240,4.0,9.0,44,0.00,,,0.00,0.00,VWS V14.00,2013-04-07 07:13:00,
2013-04-07 03:18:00,34.2,13.5,30.14,WSW,244,8.0,9.0,42,0.00,,,0.00,0.00,VWS V14.00,2013-04-07 07:18:00,
2013-04-07 03:23:00,34.5,13.2,30.14,WSW,240,3.0,8.0,41,0.00,,,0.00,0.00,VWS V14.00,2013-04-07 07:23:00,
2013-04-07 03:28:00,34.7,14.0,30.14,WSW,257,3.0,8.0,42,0.00,,,0.00,0.00,VWS V14.00,2013-04-07 07:28:00,
2013-04-07 03:33:00,34.8,14.1,30.14,WSW,248,0.0,6.0,42,0.00,,,0.00,0.00,VWS V14.00,2013-04-07 07:33:00,
2013-04-07 03:38:00,34.9,14.1,30.13,SW,215,2.0,5.0,42,0.00,,,0.00,0.00,VWS V14.00,2013-04-07 07:38:00,
2013-04-07 03:43:00,35.0,13.1,30.13,SSW,208,3.0,8.0,40,0.00,,,0.00,0.00,VWS V14.00,2013-04-07 07:43:00,
2013-04-07 03:48:00,35.1,12.6,30.13,SW,233,0.0,9.0,39,0.00,,,0.00,0.00,VWS V14.00,2013-04-07 07:48:00,
2013-04-07 03:53:00,35.2,13.3,30.13,West,269,1.0,5.0,40,0.00,,,0.00,0.00,VWS V14.00,2013-04-07 07:53:00,
2013-04-07 03:58:00,35.3,13.4,30.12,WSW,250,2.0,6.0,40,0.00,,,0.00,0.00,VWS V14.00,2013-04-07 07:58:00,
2013-04-07 04:03:00,35.3,13.4,30.12,SW,231,1.0,6.0,40,0.00,,,0.00,0.00,VWS V14.00,2013-04-07 08:03:00,
2013-04-07 04:08:00,35.4,12.9,30.13,WSW,252,4.0,7.0,39,0.00,,,0.00,0.00,VWS V14.00,2013-04-07 08:08:00,
2013-04-07 04:13:00,35.4,12.9,30.12,SW,234,6.0,11.0,39,0.00,,,0.00,0.00,VWS V14.00,2013-04-07 08:13:00,
2013-04-07 04:18:00,35.5,13.0,30.12,SW,232,3.0,9.0,39,0.00,,,0.00,0.00,VWS V14.00,2013-04-07 08:18:00,
2013-04-07 04:23:00,35.6,12.5,30.12,WSW,254,4.0,10.0,38,0.00,,,0.00,0.00,VWS V14.00,2013-04-07 08:23:00,
2013-04-07 04:28:00,35.7,12.6,30.11,WSW,238,5.0,11.0,38,0.00,,,0.00,0.00,VWS V14.00,2013-04-07 08:28:00,
2013-04-07 04:33:00,35.8,13.3,30.12,WSW,244,9.0,9.0,39,0.00,,,0.00,0.00,VWS V14.00,2013-04-07 08:33:00,
2013-04-07 04:38:00,35.9,12.8,30.12,WSW,258,9.0,13.0,38,0.00,,,0.00,0.00,VWS V14.00,2013-04-07 08:38:00,
2013-04-07 04:43:00,36.0,13.5,30.12,WSW,244,3.0,7.0,39,0.00,,,0.00,0.00,VWS V14.00,2013-04-07 08:43:00,
2013-04-07 04:48:00,36.1,13.0,30.12,WSW,257,4.0,12.0,38,0.00,,,0.00,0.00,VWS V14.00,2013-04-07 08:48:00,
2013-04-07 04:53:00,36.2,13.1,30.11,SW,236,10.0,10.0,38,0.00,,,0.00,0.00,VWS V14.00,2013-04-07 08:53:00,
2013-04-07 04:58:00,36.2,13.1,30.11,WSW,252,9.0,12.0,38,0.00,,,0.00,0.00,VWS V14.00,2013-04-07 08:58:00,
2013-04-07 05:03:00,36.2,13.1,30.11,WSW,256,3.0,11.0,38,0.00,,,0.00,0.00,VWS V14.00,2013-04-07 09:03:00,
2013-04-07 05:08:00,36.2,13.6,30.11,West,271,3.0,13.0,39,0.00,,,0.00,0.00,VWS V14.00,2013-04-07 09:08:00,
2013-04-07 05:13:00,36.1,13.6,30.11,SW,228,7.0,9.0,39,0.00,,,0.00,0.00,VWS V14.00,2013-04-07 09:13:00,
2013-04-07 05:18:00,36.1,13.6,30.11,WSW,257,6.0,17.0,39,0.00,,,0.00,0.00,VWS V14.00,2013-04-07 09:18:00,
2013-04-07 05:23:00,36.1,13.6,30.11,WSW,238,8.0,11.0,39,0.00,,,0.00,0.00,VWS V14.00,2013-04-07 09:23:00,
2013-04-07 05:28:00,36.2,14.2,30.11,SW,236,8.0,13.0,40,0.00,,,0.00,0.00,VWS V14.00,2013-04-07 09:28:00,
2013-04-07 05:33:00,36.3,13.7,30.12,SW,220,8.0,14.0,39,0.00,,,0.00,0.00,VWS V14.00,2013-04-07 09:33:00,
2013-04-07 05:38:00,36.4,13.8,30.12,WSW,241,6.0,10.0,39,0.00,,,0.00,0.00,VWS V14.00,2013-04-07 09:38:00,
2013-04-07 05:43:00,36.5,13.3,30.12,SW,234,2.0,9.0,38,0.00,,,0.00,0.00,VWS V14.00,2013-04-07 09:43:00,
2013-04-07 05:48:00,36.5,13.9,30.12,SW,222,2.0,8.0,39,0.00,,,0.00,0.00,VWS V14.00,2013-04-07 09:48:00,
2013-04-07 05:53:00,36.6,14.0,30.11,SSW,202,5.0,7.0,39,0.00,,,0.00,0.00,VWS V14.00,2013-04-07 09:53:00,
2013-04-07 05:58:00,36.6,14.0,30.11,SSW,203,7.0,8.0,39,0.00,,,0.00,0.00,VWS V14.00,2013-04-07 09:58:00,
2013-04-07 06:03:00,36.6,14.6,30.11,SSW,207,2.0,7.0,40,0.00,,,0.00,0.00,VWS V14.00,2013-04-07 10:03:00,
2013-04-07 06:08:00,36.5,13.9,30.11,SSW,198,3.0,7.0,39,0.00,,,0.00,0.00,VWS V14.00,2013-04-07 10:08:00,
2013-04-07 06:13:00,36.5,14.5,30.10,SSW,201,7.0,14.0,40,0.00,,,0.00,0.00,VWS V14.00,2013-04-07 10:13:00,
2013-04-07 06:19:00,36.5,14.5,30.11,SSW,208,6.0,9.0,40,0.00,,,0.00,0.00,VWS V14.00,2013-04-07 10:19:00,
2013-04-07 06:24:00,36.5,14.5,30.10,SSW,196,7.0,15.0,40,0.00,,,0.00,0.00,VWS V14.00,2013-04-07 10:24:00,
2013-04-07 06:29:00,36.5,14.5,30.10,WSW,241,6.0,9.0,40,0.00,,,0.00,0.00,VWS V14.00,2013-04-07 10:29:00,
2013-04-07 06:34:00,36.5,15.1,30.10,SW,227,6.0,10.0,41,0.00,,,0.00,5.00,VWS V14.00,2013-04-07 10:34:00,
2013-04-07 06:39:00,36.4,16.0,30.10,SSW,205,5.0,8.0,43,0.00,,,0.00,7.00,VWS V14.00,2013-04-07 10:39:00,
2013-04-07 06:44:00,36.2,17.4,30.10,SSW,205,9.0,14.0,46,0.00,,,0.00,9.00,VWS V14.00,2013-04-07 10:44:00,
2013-04-07 06:49:00,36.0,18.2,30.10,SSW,199,2.0,14.0,48,0.00,,,0.00,11.00,VWS V14.00,2013-04-07 10:49:00,
2013-04-07 06:54:00,35.8,19.0,30.10,SSW,213,3.0,12.0,50,0.00,,,0.00,14.00,VWS V14.00,2013-04-07 10:54:00,
2013-04-07 06:59:00,35.7,19.8,30.10,SSW,203,7.0,10.0,52,0.00,,,0.00,21.00,VWS V14.00,2013-04-07 10:59:00,
2013-04-07 07:04:00,35.4,20.4,30.10,SW,235,8.0,11.0,54,0.00,,,0.00,19.00,VWS V14.00,2013-04-07 11:04:00,
2013-04-07 07:09:00,35.3,21.2,30.10,SW,231,5.0,11.0,56,0.00,,,0.00,25.00,VWS V14.00,2013-04-07 11:09:00,
2013-04-07 07:15:00,35.2,21.5,30.10,SW,227,6.0,15.0,57,0.00,,,0.00,28.00,VWS V14.00,2013-04-07 11:15:00,
2013-04-07 07:20:00,35.2,21.9,30.09,SW,224,4.0,13.0,58,0.00,,,0.00,21.00,VWS V14.00,2013-04-07 11:20:00,
2013-04-07 07:25:00,35.2,21.9,30.09,SW,224,0.0,6.0,58,0.00,,,0.00,23.00,VWS V14.00,2013-04-07 11:25:00,
2013-04-07 07:30:00,35.2,22.3,30.09,SSW,202,2.0,6.0,59,0.00,,,0.00,28.00,VWS V14.00,2013-04-07 11:30:00,
2013-04-07 07:35:00,35.2,21.9,30.09,SW,221,6.0,10.0,58,0.00,,,0.00,39.00,VWS V14.00,2013-04-07 11:35:00,
2013-04-07 07:40:00,35.3,22.4,30.08,SW,228,6.0,10.0,59,0.00,,,0.00,51.00,VWS V14.00,2013-04-07 11:40:00,
2013-04-07 07:45:00,35.4,22.1,30.08,SW,232,5.0,7.0,58,0.00,,,0.00,56.00,VWS V14.00,2013-04-07 11:45:00,
2013-04-07 07:50:00,35.5,22.6,30.08,SW,232,6.0,11.0,59,0.00,,,0.00,77.00,VWS V14.00,2013-04-07 11:50:00,
2013-04-07 07:55:00,35.7,22.0,30.07,WSW,252,6.0,13.0,57,0.00,,,0.00,95.00,VWS V14.00,2013-04-07 11:55:00,
2013-04-07 08:00:00,35.9,22.2,30.07,SW,236,6.0,12.0,57,0.00,,,0.00,118.00,VWS V14.00,2013-04-07 12:00:00,
2013-04-07 08:05:00,36.1,22.4,30.07,West,265,7.0,13.0,57,0.00,,,0.00,135.00,VWS V14.00,2013-04-07 12:05:00,
2013-04-07 08:10:00,36.4,22.2,30.07,SW,236,8.0,12.0,56,0.00,,,0.00,144.00,VWS V14.00,2013-04-07 12:10:00,
2013-04-07 08:16:00,36.6,22.0,30.07,WSW,248,5.0,13.0,55,0.00,,,0.00,142.00,VWS V14.00,2013-04-07 12:16:00,
2013-04-07 08:21:00,37.0,22.4,30.07,West,260,7.0,12.0,55,0.00,,,0.00,141.00,VWS V14.00,2013-04-07 12:21:00,
2013-04-07 08:26:00,37.3,22.6,30.06,WSW,250,8.0,11.0,55,0.00,,,0.00,144.00,VWS V14.00,2013-04-07 12:26:00,
2013-04-07 08:31:00,37.5,21.9,30.06,WSW,241,4.0,8.0,53,0.00,,,0.00,141.00,VWS V14.00,2013-04-07 12:31:00,
2013-04-07 08:36:00,37.8,22.2,30.05,SW,221,4.0,8.0,53,0.00,,,0.00,146.00,VWS V14.00,2013-04-07 12:36:00,
2013-04-07 08:41:00,38.0,22.4,30.05,SW,219,5.0,10.0,53,0.00,,,0.00,153.00,VWS V14.00,2013-04-07 12:41:00,
2013-04-07 08:46:00,38.3,22.2,30.05,WSW,250,3.0,11.0,52,0.00,,,0.00,156.00,VWS V14.00,2013-04-07 12:46:00,
2013-04-07 08:51:00,38.5,22.4,30.04,SW,226,5.0,9.0,52,0.00,,,0.00,174.00,VWS V14.00,2013-04-07 12:51:00,
2013-04-07 08:56:00,38.9,22.8,30.04,WSW,247,4.0,4.0,52,0.00,,,0.00,209.00,VWS V14.00,2013-04-07 12:56:00,
2013-04-07 09:01:00,39.2,23.5,30.04,WSW,247,4.0,7.0,53,0.00,,,0.00,255.00,VWS V14.00,2013-04-07 13:01:00,
2013-04-07 09:06:00,39.7,23.5,30.04,WSW,240,2.0,13.0,52,0.00,,,0.00,381.00,VWS V14.00,2013-04-07 13:06:00,
2013-04-07 09:11:00,40.2,23.1,30.04,WSW,240,3.0,3.0,50,0.00,,,0.00,243.00,VWS V14.00,2013-04-07 13:11:00,
2013-04-07 09:16:00,40.8,24.1,30.04,SW,232,5.0,13.0,51,0.00,,,0.00,174.00,VWS V14.00,2013-04-07 13:16:00,
2013-04-07 09:21:00,41.2,24.0,30.04,SW,230,5.0,11.0,50,0.00,,,0.00,311.00,VWS V14.00,2013-04-07 13:21:00,
2013-04-07 09:26:00,41.6,24.4,30.03,WSW,238,9.0,9.0,50,0.00,,,0.00,355.00,VWS V14.00,2013-04-07 13:26:00,
2013-04-07 09:31:00,42.0,24.2,30.03,SW,235,5.0,16.0,49,0.00,,,0.00,387.00,VWS V14.00,2013-04-07 13:31:00,
2013-04-07 09:36:00,42.4,25.1,30.02,SSW,212,7.0,11.0,50,0.00,,,0.00,302.00,VWS V14.00,2013-04-07 13:36:00,
2013-04-07 09:41:00,42.8,25.0,30.02,SSW,208,19.0,19.0,49,0.00,,,0.00,265.00,VWS V14.00,2013-04-07 13:41:00,
2013-04-07 09:46:00,43.0,25.2,30.01,SSW,208,16.0,24.0,49,0.00,,,0.00,294.00,VWS V14.00,2013-04-07 13:46:00,
2013-04-07 09:51:00,43.1,25.3,30.01,SSW,205,17.0,19.0,49,0.00,,,0.00,304.00,VWS V14.00,2013-04-07 13:51:00,
2013-04-07 09:56:00,43.1,25.3,30.01,WSW,237,7.0,8.0,49,0.00,,,0.00,350.00,VWS V14.00,2013-04-07 13:56:00,
2013-04-07 10:01:00,43.4,25.5,30.00,WSW,256,7.0,7.0,49,0.00,,,0.00,357.00,VWS V14.00,2013-04-07 14:01:00,
2013-04-07 10:06:00,43.7,25.8,30.00,SW,223,4.0,5.0,49,0.00,,,0.00,315.00,VWS V14.00,2013-04-07 14:06:00,
2013-04-07 10:11:00,44.2,26.8,30.00,WSW,244,12.0,18.0,50,0.00,,,0.00,642.00,VWS V14.00,2013-04-07 14:11:00,
2013-04-07 10:16:00,44.5,26.0,30.00,SW,230,6.0,8.0,48,0.00,,,0.00,478.00,VWS V14.00,2013-04-07 14:16:00,
2013-04-07 10:22:00,44.9,26.4,29.99,SW,232,7.0,13.0,48,0.00,,,0.00,585.00,VWS V14.00,2013-04-07 14:22:00,
2013-04-07 10:27:00,45.3,26.8,29.99,SSW,201,8.0,14.0,48,0.00,,,0.00,640.00,VWS V14.00,2013-04-07 14:27:00,
2013-04-07 10:32:00,45.8,27.2,29.99,WSW,238,4.0,8.0,48,0.00,,,0.00,487.00,VWS V14.00,2013-04-07 14:32:00,
2013-04-07 10:37:00,46.1,27.0,29.99,WSW,244,13.0,13.0,47,0.00,,,0.00,345.00,VWS V14.00,2013-04-07 14:37:00,
2013-04-07 10:42:00,46.3,27.7,29.99,SW,221,2.0,8.0,48,0.00,,,0.00,589.00,VWS V14.00,2013-04-07 14:42:00,
2013-04-07 10:47:00,46.7,27.6,29.99,WNW,289,11.0,12.0,47,0.00,,,0.00,810.00,VWS V14.00,2013-04-07 14:47:00,
2013-04-07 10:52:00,47.2,27.5,29.98,SW,230,7.0,17.0,46,0.00,,,0.00,805.00,VWS V14.00,2013-04-07 14:52:00,
2013-04-07 10:57:00,47.7,27.4,29.98,WSW,242,16.0,21.0,45,0.00,,,0.00,626.00,VWS V14.00,2013-04-07 14:57:00,
2013-04-07 11:02:00,47.8,27.0,29.98,SW,215,26.0,26.0,44,0.00,,,0.00,877.00,VWS V14.00,2013-04-07 15:02:00,
2013-04-07 11:07:00,47.9,27.0,29.98,SSW,200,9.0,21.0,44,0.00,,,0.00,696.00,VWS V14.00,2013-04-07 15:07:00,
2013-04-07 11:12:00,48.0,26.6,29.97,WSW,238,10.0,23.0,43,0.00,,,0.00,629.00,VWS V14.00,2013-04-07 15:12:00,
2013-04-07 11:17:00,48.1,27.2,29.96,SSW,204,16.0,25.0,44,0.00,,,0.00,679.00,VWS V14.00,2013-04-07 15:17:00,
2013-04-07 11:22:00,48.1,27.2,29.96,South,178,9.0,21.0,44,0.00,,,0.00,343.00,VWS V14.00,2013-04-07 15:22:00,
2013-04-07 11:27:00,47.8,26.4,29.95,South,191,9.0,20.0,43,0.00,,,0.00,438.00,VWS V14.00,2013-04-07 15:27:00,
2013-04-07 11:32:00,47.5,26.7,29.96,South,179,8.0,19.0,44,0.00,,,0.00,299.00,VWS V14.00,2013-04-07 15:32:00,
2013-04-07 11:37:00,47.3,26.5,29.95,SW,225,10.0,22.0,44,0.00,,,0.00,241.00,VWS V14.00,2013-04-07 15:37:00,
2013-04-07 11:42:00,47.0,26.2,29.94,South,190,6.0,16.0,44,0.00,,,0.00,510.00,VWS V14.00,2013-04-07 15:42:00,
2013-04-07 11:47:00,47.0,26.8,29.94,South,182,7.0,20.0,45,0.00,,,0.00,898.00,VWS V14.00,2013-04-07 15:47:00,
2013-04-07 11:52:00,47.8,27.0,29.94,SSW,196,12.0,22.0,44,0.00,,,0.00,823.00,VWS V14.00,2013-04-07 15:52:00,
2013-04-07 11:57:00,48.3,26.9,29.93,SW,234,18.0,18.0,43,0.00,,,0.00,812.00,VWS V14.00,2013-04-07 15:57:00,
2013-04-07 12:02:00,48.8,27.3,29.93,South,182,8.0,22.0,43,0.00,,,0.00,814.00,VWS V14.00,2013-04-07 16:02:00,
2013-04-07 12:07:00,49.2,27.1,29.93,SSW,213,8.0,20.0,42,0.00,,,0.00,817.00,VWS V14.00,2013-04-07 16:07:00,
2013-04-07 12:12:00,49.8,27.6,29.92,SW,219,17.0,29.0,42,0.00,,,0.00,824.00,VWS V14.00,2013-04-07 16:12:00,
2013-04-07 12:17:00,50.1,27.9,29.92,WSW,238,9.0,19.0,42,0.00,,,0.00,826.00,VWS V14.00,2013-04-07 16:17:00,
2013-04-07 12:22:00,50.2,27.4,29.92,South,172,11.0,18.0,41,0.00,,,0.00,830.00,VWS V14.00,2013-04-07 16:22:00,
2013-04-07 12:27:00,50.2,26.8,29.92,South,179,16.0,26.0,40,0.00,,,0.00,833.00,VWS V14.00,2013-04-07 16:27:00,
2013-04-07 12:33:00,50.3,27.5,29.91,South,180,9.0,24.0,41,0.00,,,0.00,833.00,VWS V14.00,2013-04-07 16:33:00,
2013-04-07 12:38:00,50.5,27.7,29.91,South,174,15.0,22.0,41,0.00,,,0.00,835.00,VWS V14.00,2013-04-07 16:38:00,
2013-04-07 12:43:00,50.8,27.4,29.91,SSE,167,9.0,25.0,40,0.00,,,0.00,840.00,VWS V14.00,2013-04-07 16:43:00,
2013-04-07 12:48:00,51.2,28.3,29.91,SSW,202,12.0,21.0,41,0.00,,,0.00,842.00,VWS V14.00,2013-04-07 16:48:00,
2013-04-07 12:53:00,51.6,27.5,29.90,SSW,192,9.0,20.0,39,0.00,,,0.00,838.00,VWS V14.00,2013-04-07 16:53:00,
2013-04-07 12:58:00,51.8,27.0,29.89,SE,130,10.0,21.0,38,0.00,,,0.00,844.00,VWS V14.00,2013-04-07 16:58:00,
2013-04-07 13:03:00,52.3,28.1,29.89,SSW,203,6.0,13.0,39,0.00,,,0.00,849.00,VWS V14.00,2013-04-07 17:03:00,
2013-04-07 13:08:00,52.6,27.7,29.89,South,175,5.0,21.0,38,0.00,,,0.00,849.00,VWS V14.00,2013-04-07 17:08:00,
2013-04-07 13:13:00,52.6,28.4,29.88,SSW,196,10.0,17.0,39,0.00,,,0.00,846.00,VWS V14.00,2013-04-07 17:13:00,
2013-04-07 13:18:00,52.7,28.5,29.88,SSE,166,4.0,20.0,39,0.00,,,0.00,849.00,VWS V14.00,2013-04-07 17:18:00,
2013-04-07 13:23:00,52.6,27.7,29.88,SSE,165,7.0,25.0,38,0.00,,,0.00,842.00,VWS V14.00,2013-04-07 17:23:00,
2013-04-07 13:28:00,52.8,27.9,29.87,SW,218,10.0,24.0,38,0.00,,,0.00,851.00,VWS V14.00,2013-04-07 17:28:00,
2013-04-07 13:33:00,52.7,27.8,29.86,South,180,5.0,19.0,38,0.00,,,0.00,847.00,VWS V14.00,2013-04-07 17:33:00,
2013-04-07 13:38:00,53.2,27.6,29.86,South,175,9.0,20.0,37,0.00,,,0.00,851.00,VWS V14.00,2013-04-07 17:38:00,
2013-04-07 13:43:00,53.6,28.6,29.86,SW,216,15.0,15.0,38,0.00,,,0.00,847.00,VWS V14.00,2013-04-07 17:43:00,
2013-04-07 13:48:00,53.9,27.6,29.85,South,175,15.0,21.0,36,0.00,,,0.00,835.00,VWS V14.00,2013-04-07 17:48:00,
2013-04-07 13:54:00,53.9,28.9,29.84,SSW,193,14.0,17.0,38,0.00,,,0.00,837.00,VWS V14.00,2013-04-07 17:54:00,
2013-04-07 13:59:00,53.9,27.6,29.84,SSW,206,7.0,24.0,36,0.00,,,0.00,805.00,VWS V14.00,2013-04-07 17:59:00,
2013-04-07 14:04:00,53.8,26.8,29.84,South,186,14.0,29.0,35,0.00,,,0.00,805.00,VWS V14.00,2013-04-07 18:04:00,
2013-04-07 14:09:00,53.7,27.4,29.85,SSW,211,13.0,23.0,36,0.00,,,0.00,833.00,VWS V14.00,2013-04-07 18:09:00,
2013-04-07 14:14:00,54.0,28.3,29.85,SSW,209,10.0,22.0,37,0.00,,,0.00,756.00,VWS V14.00,2013-04-07 18:14:00,
2013-04-07 14:19:00,54.4,27.3,29.84,South,170,9.0,25.0,35,0.00,,,0.00,668.00,VWS V14.00,2013-04-07 18:19:00,
2013-04-07 14:24:00,54.6,28.2,29.83,SW,220,8.0,17.0,36,0.00,,,0.00,749.00,VWS V14.00,2013-04-07 18:24:00,
2013-04-07 14:29:00,55.1,28.0,29.83,SSW,205,17.0,22.0,35,0.00,,,0.00,682.00,VWS V14.00,2013-04-07 18:29:00,
2013-04-07 14:34:00,55.2,28.0,29.84,SSW,209,19.0,23.0,35,0.00,,,0.00,701.00,VWS V14.00,2013-04-07 18:34:00,
2013-04-07 14:39:00,55.4,28.9,29.84,SSE,163,6.0,17.0,36,0.00,,,0.00,833.00,VWS V14.00,2013-04-07 18:39:00,
2013-04-07 14:44:00,56.0,28.8,29.84,SW,217,8.0,15.0,35,0.00,,,0.00,925.00,VWS V14.00,2013-04-07 18:44:00,
2013-04-07 14:49:00,57.0,29.6,29.84,West,261,11.0,27.0,35,0.00,,,0.00,429.00,VWS V14.00,2013-04-07 18:49:00,
2013-04-07 14:54:00,57.1,28.3,29.84,SSW,194,12.0,14.0,33,0.00,,,0.00,304.00,VWS V14.00,2013-04-07 18:54:00,
2013-04-07 15:00:00,56.5,27.8,29.84,SW,214,6.0,19.0,33,0.00,,,0.00,251.00,VWS V14.00,2013-04-07 19:00:00,
2013-04-07 15:04:00,56.0,27.3,29.84,SSW,213,8.0,11.0,33,0.00,,,0.00,271.00,VWS V14.00,2013-04-07 19:04:00,
2013-04-07 15:10:00,55.6,27.0,29.85,SSW,203,7.0,21.0,33,0.00,,,0.00,179.00,VWS V14.00,2013-04-07 19:10:00,
2013-04-07 15:15:00,55.1,27.3,29.84,SW,219,5.0,18.0,34,0.00,,,0.00,155.00,VWS V14.00,2013-04-07 19:15:00,
2013-04-07 15:20:00,54.7,26.2,29.84,SW,228,10.0,16.0,33,0.00,,,0.00,72.00,VWS V14.00,2013-04-07 19:20:00,
2013-04-07 15:25:00,54.2,26.5,29.85,SW,221,11.0,18.0,34,0.00,,,0.00,65.00,VWS V14.00,2013-04-07 19:25:00,
2013-04-07 15:30:00,53.8,26.8,29.84,South,185,12.0,20.0,35,0.00,,,0.00,72.00,VWS V14.00,2013-04-07 19:30:00,
2013-04-07 15:35:00,53.6,26.6,29.84,South,180,7.0,15.0,35,0.00,,,0.00,83.00,VWS V14.00,2013-04-07 19:35:00,
2013-04-07 15:40:00,53.4,30.3,29.83,SW,227,9.0,16.0,41,0.00,,,0.00,396.00,VWS V14.00,2013-04-07 19:40:00,
2013-04-07 15:45:00,53.3,29.0,29.82,SSW,209,8.0,14.0,39,0.00,,,0.00,322.00,VWS V14.00,2013-04-07 19:45:00,
2013-04-07 15:50:00,53.5,31.0,29.83,SSW,196,7.0,13.0,42,0.00,,,0.00,415.00,VWS V14.00,2013-04-07 19:50:00,
2013-04-07 15:55:00,53.7,31.8,29.83,SW,234,4.0,16.0,43,0.00,,,0.00,230.00,VWS V14.00,2013-04-07 19:55:00,
2013-04-07 16:00:00,53.7,31.2,29.83,SSW,203,18.0,18.0,42,0.00,,,0.00,246.00,VWS V14.00,2013-04-07 20:00:00,
2013-04-07 16:05:00,53.7,31.8,29.83,WSW,250,9.0,19.0,43,0.00,,,0.00,765.00,VWS V14.00,2013-04-07 20:05:00,
2013-04-07 16:10:00,54.2,31.6,29.83,SSW,206,7.0,16.0,42,0.00,,,0.00,554.00,VWS V14.00,2013-04-07 20:10:00,
2013-04-07 16:15:00,54.6,32.0,29.83,SW,218,11.0,20.0,42,0.00,,,0.00,485.00,VWS V14.00,2013-04-07 20:15:00,
2013-04-07 16:21:00,54.7,31.5,29.82,SW,219,6.0,21.0,41,0.00,,,0.00,257.00,VWS V14.00,2013-04-07 20:21:00,
2013-04-07 16:26:00,54.5,31.9,29.82,WSW,258,9.0,14.0,42,0.00,,,0.00,230.00,VWS V14.00,2013-04-07 20:26:00,
2013-04-07 16:31:00,54.2,31.6,29.82,SSW,196,8.0,11.0,42,0.00,,,0.00,271.00,VWS V14.00,2013-04-07 20:31:00,
2013-04-07 16:36:00,54.0,31.5,29.83,SSW,192,12.0,17.0,42,0.00,,,0.00,309.00,VWS V14.00,2013-04-07 20:36:00,
2013-04-07 16:41:00,53.9,31.9,29.82,SW,234,8.0,19.0,43,0.00,,,0.00,350.00,VWS V14.00,2013-04-07 20:41:00,
2013-04-07 16:46:00,53.9,32.5,29.82,SSW,194,7.0,7.0,44,0.00,,,0.00,255.00,VWS V14.00,2013-04-07 20:46:00,
2013-04-07 16:51:00,53.7,32.3,29.82,SW,217,8.0,23.0,44,0.00,,,0.00,239.00,VWS V14.00,2013-04-07 20:51:00,
2013-04-07 16:56:00,53.6,32.2,29.82,SW,236,6.0,6.0,44,0.00,,,0.00,299.00,VWS V14.00,2013-04-07 20:56:00,
2013-04-07 17:01:00,53.7,32.9,29.82,South,175,4.0,13.0,45,0.00,,,0.00,267.00,VWS V14.00,2013-04-07 21:01:00,
2013-04-07 17:06:00,53.8,32.4,29.82,South,178,8.0,9.0,44,0.00,,,0.00,227.00,VWS V14.00,2013-04-07 21:06:00,
2013-04-07 17:11:00,53.8,32.4,29.82,SSE,165,7.0,18.0,44,0.00,,,0.00,276.00,VWS V14.00,2013-04-07 21:11:00,
2013-04-07 17:16:00,53.8,32.4,29.82,South,169,3.0,8.0,44,0.00,,,0.00,346.00,VWS V14.00,2013-04-07 21:16:00,
2013-04-07 17:21:00,53.9,33.1,29.82,SSW,200,2.0,6.0,45,0.00,,,0.00,265.00,VWS V14.00,2013-04-07 21:21:00,
2013-04-07 17:26:00,54.1,32.7,29.82,SSE,163,5.0,8.0,44,0.00,,,0.00,276.00,VWS V14.00,2013-04-07 21:26:00,
2013-04-07 17:31:00,54.1,32.7,29.81,South,176,6.0,9.0,44,0.00,,,0.00,302.00,VWS V14.00,2013-04-07 21:31:00,
2013-04-07 17:36:00,54.1,32.7,29.80,SSW,195,7.0,8.0,44,0.00,,,0.00,316.00,VWS V14.00,2013-04-07 21:36:00,
2013-04-07 17:41:00,54.2,32.8,29.80,South,173,18.0,18.0,44,0.00,,,0.00,299.00,VWS V14.00,2013-04-07 21:41:00,
2013-04-07 17:46:00,54.3,32.3,29.80,SW,227,2.0,10.0,43,0.00,,,0.00,281.00,VWS V14.00,2013-04-07 21:46:00,
2013-04-07 17:51:00,54.4,32.4,29.81,SSW,202,9.0,16.0,43,0.00,,,0.00,269.00,VWS V14.00,2013-04-07 21:51:00,
2013-04-07 17:57:00,54.5,32.5,29.80,South,190,6.0,7.0,43,0.00,,,0.00,248.00,VWS V14.00,2013-04-07 21:57:00,
2013-04-07 18:02:00,54.6,32.0,29.80,WSW,252,11.0,11.0,42,0.00,,,0.00,229.00,VWS V14.00,2013-04-07 22:02:00,
2013-04-07 18:07:00,54.6,32.0,29.81,SSW,205,6.0,12.0,42,0.00,,,0.00,220.00,VWS V14.00,2013-04-07 22:07:00,
2013-04-07 18:12:00,54.5,31.9,29.81,SW,219,11.0,16.0,42,0.00,,,0.00,199.00,VWS V14.00,2013-04-07 22:12:00,
2013-04-07 18:17:00,54.5,31.9,29.80,SW,232,14.0,14.0,42,0.00,,,0.00,185.00,VWS V14.00,2013-04-07 22:17:00,
2013-04-07 18:22:00,54.4,31.8,29.80,SW,232,8.0,10.0,42,0.00,,,0.00,153.00,VWS V14.00,2013-04-07 22:22:00,
2013-04-07 18:27:00,54.3,31.7,29.80,South,186,2.0,5.0,42,0.00,,,0.00,130.00,VWS V14.00,2013-04-07 22:27:00,
2013-04-07 18:32:00,54.2,31.6,29.80,SW,226,12.0,12.0,42,0.00,,,0.00,44.00,VWS V14.00,2013-04-07 22:32:00,
2013-04-07 18:37:00,53.9,31.4,29.80,South,190,5.0,17.0,42,0.00,,,0.00,40.00,VWS V14.00,2013-04-07 22:37:00,
2013-04-07 18:42:00,53.7,31.8,29.80,SW,223,4.0,10.0,43,0.00,,,0.00,37.00,VWS V14.00,2013-04-07 22:42:00,
2013-04-07 18:47:00,53.4,31.5,29.80,SSW,211,7.0,8.0,43,0.00,,,0.00,30.00,VWS V14.00,2013-04-07 22:47:00,
2013-04-07 18:52:00,53.2,31.9,29.80,SSW,194,6.0,11.0,44,0.00,,,0.00,26.00,VWS V14.00,2013-04-07 22:52:00,
2013-04-07 18:57:00,52.9,31.6,29.80,SSW,213,9.0,12.0,44,0.00,,,0.00,21.00,VWS V14.00,2013-04-07 22:57:00,
2013-04-07 19:02:00,52.7,31.4,29.80,South,169,7.0,13.0,44,0.00,,,0.00,23.00,VWS V14.00,2013-04-07 23:02:00,
2013-04-07 19:08:00,52.6,31.9,29.80,SW,221,8.0,16.0,45,0.00,,,0.00,16.00,VWS V14.00,2013-04-07 23:08:00,
2013-04-07 19:13:00,52.3,31.6,29.80,SSW,205,7.0,10.0,45,0.00,,,0.00,12.00,VWS V14.00,2013-04-07 23:13:00,
2013-04-07 19:18:00,52.1,32.0,29.79,SSW,198,4.0,7.0,46,0.00,,,0.00,11.00,VWS V14.00,2013-04-07 23:18:00,
2013-04-07 19:23:00,51.8,31.7,29.79,SSW,209,9.0,11.0,46,0.00,,,0.00,7.00,VWS V14.00,2013-04-07 23:23:00,
2013-04-07 19:28:00,51.6,31.5,29.79,South,177,3.0,11.0,46,0.00,,,0.00,5.00,VWS V14.00,2013-04-07 23:28:00,
2013-04-07 19:33:00,51.4,31.9,29.79,SW,226,6.0,13.0,47,0.00,,,0.00,0.00,VWS V14.00,2013-04-07 23:33:00,
2013-04-07 19:38:00,51.3,31.8,29.79,SW,221,4.0,8.0,47,0.00,,,0.00,0.00,VWS V14.00,2013-04-07 23:38:00,
2013-04-07 19:43:00,51.1,32.1,29.79,WSW,238,9.0,12.0,48,0.00,,,0.00,0.00,VWS V14.00,2013-04-07 23:43:00,
2013-04-07 19:48:00,51.0,32.5,29.80,SSW,201,8.0,13.0,49,0.00,,,0.00,0.00,VWS V14.00,2013-04-07 23:48:00,
2013-04-07 19:53:00,51.0,32.5,29.79,South,179,6.0,13.0,49,0.00,,,0.00,0.00,VWS V14.00,2013-04-07 23:53:00,
2013-04-07 19:58:00,50.9,32.4,29.79,South,178,5.0,9.0,49,0.00,,,0.00,0.00,VWS V14.00,2013-04-07 23:58:00,
2013-04-07 20:03:00,50.7,32.8,29.79,SW,229,10.0,13.0,50,0.00,,,0.00,0.00,VWS V14.00,2013-04-08 00:03:00,
2013-04-07 20:08:00,50.6,32.7,29.79,WSW,237,3.0,10.0,50,0.00,,,0.00,0.00,VWS V14.00,2013-04-08 00:08:00,
2013-04-07 20:13:00,50.5,32.6,29.80,SW,234,3.0,6.0,50,0.00,,,0.00,0.00,VWS V14.00,2013-04-08 00:13:00,
2013-04-07 20:18:00,50.3,32.9,29.81,SW,231,4.0,12.0,51,0.00,,,0.00,0.00,VWS V14.00,2013-04-08 00:18:00,
2013-04-07 20:23:00,50.2,32.8,29.80,SW,219,3.0,6.0,51,0.00,,,0.00,0.00,VWS V14.00,2013-04-08 00:23:00,
2013-04-07 20:28:00,50.1,32.7,29.80,SSW,208,0.0,9.0,51,0.00,,,0.00,0.00,VWS V14.00,2013-04-08 00:28:00,
2013-04-07 20:33:00,49.9,32.5,29.80,SSW,211,0.0,2.0,51,0.00,,,0.00,0.00,VWS V14.00,2013-04-08 00:33:00,
2013-04-07 20:38:00,49.8,32.4,29.80,SSW,212,2.0,3.0,51,0.00,,,0.00,0.00,VWS V14.00,2013-04-08 00:38:00,
2013-04-07 20:43:00,49.5,32.6,29.80,WSW,239,1.0,6.0,52,0.00,,,0.00,0.00,VWS V14.00,2013-04-08 00:43:00,
2013-04-07 20:48:00,49.3,32.4,29.81,SW,223,0.0,3.0,52,0.00,,,0.00,0.00,VWS V14.00,2013-04-08 00:48:00,
2013-04-07 20:53:00,49.0,32.6,29.81,SW,227,5.0,7.0,53,0.00,,,0.00,0.00,VWS V14.00,2013-04-08 00:53:00,
2013-04-07 20:59:00,48.8,32.9,29.81,SW,231,1.0,4.0,54,0.00,,,0.00,0.00,VWS V14.00,2013-04-08 00:59:00,
2013-04-07 21:04:00,48.6,32.7,29.82,SW,229,4.0,4.0,54,0.00,,,0.00,0.00,VWS V14.00,2013-04-08 01:04:00,
2013-04-07 21:09:00,48.5,32.6,29.82,SW,221,2.0,4.0,54,0.00,,,0.00,0.00,VWS V14.00,2013-04-08 01:09:00,
2013-04-07 21:14:00,48.4,33.0,29.82,SW,229,10.0,11.0,55,0.00,,,0.00,0.00,VWS V14.00,2013-04-08 01:14:00,
2013-04-07 21:20:00,48.3,33.3,29.81,SSW,209,0.0,8.0,56,0.00,,,0.00,0.00,VWS V14.00,2013-04-08 01:20:00,
2013-04-07 21:25:00,48.3,33.3,29.82,SSW,199,3.0,7.0,56,0.00,,,0.00,0.00,VWS V14.00,2013-04-08 01:25:00,
2013-04-07 21:30:00,48.2,33.3,29.82,SW,221,4.0,9.0,56,0.00,,,0.00,0.00,VWS V14.00,2013-04-08 01:30:00,
2013-04-07 21:35:00,48.2,33.7,29.83,SW,228,4.0,7.0,57,0.00,,,0.00,0.00,VWS V14.00,2013-04-08 01:35:00,
2013-04-07 21:40:00,48.3,33.8,29.82,WSW,253,7.0,10.0,57,0.00,,,0.00,0.00,VWS V14.00,2013-04-08 01:40:00,
2013-04-07 21:45:00,48.4,33.9,29.83,SW,235,1.0,5.0,57,0.00,,,0.00,0.00,VWS V14.00,2013-04-08 01:45:00,
2013-04-07 21:50:00,48.4,33.9,29.82,WSW,238,5.0,6.0,57,0.00,,,0.00,0.00,VWS V14.00,2013-04-08 01:50:00,
2013-04-07 21:55:00,48.4,33.9,29.83,SW,225,6.0,10.0,57,0.00,,,0.00,0.00,VWS V14.00,2013-04-08 01:55:00,
2013-04-07 22:00:00,48.5,34.0,29.83,South,180,4.0,9.0,57,0.00,,,0.00,0.00,VWS V14.00,2013-04-08 02:00:00,
2013-04-07 22:05:00,48.5,34.0,29.83,SSW,200,4.0,4.0,57,0.00,,,0.00,0.00,VWS V14.00,2013-04-08 02:05:00,
2013-04-07 22:10:00,48.5,34.0,29.83,South,182,2.0,5.0,57,0.00,,,0.00,0.00,VWS V14.00,2013-04-08 02:10:00,
2013-04-07 22:15:00,48.5,34.0,29.83,SSW,200,4.0,9.0,57,0.00,,,0.00,0.00,VWS V14.00,2013-04-08 02:15:00,
2013-04-07 22:20:00,48.4,33.9,29.83,South,189,7.0,7.0,57,0.00,,,0.00,0.00,VWS V14.00,2013-04-08 02:20:00,
2013-04-07 22:25:00,48.3,34.2,29.83,SW,235,4.0,10.0,58,0.00,,,0.00,0.00,VWS V14.00,2013-04-08 02:25:00,
2013-04-07 22:30:00,48.2,34.1,29.83,SW,223,6.0,12.0,58,0.00,,,0.00,0.00,VWS V14.00,2013-04-08 02:30:00,
2013-04-07 22:35:00,48.1,34.5,29.83,SW,217,6.0,10.0,59,0.00,,,0.00,0.00,VWS V14.00,2013-04-08 02:35:00,
2013-04-07 22:40:00,48.0,34.4,29.83,SSW,196,7.0,10.0,59,0.00,,,0.00,0.00,VWS V14.00,2013-04-08 02:40:00,
2013-04-07 22:45:00,47.9,34.3,29.83,SW,215,5.0,13.0,59,0.00,,,0.00,0.00,VWS V14.00,2013-04-08 02:45:00,
2013-04-07 22:50:00,47.9,34.7,29.83,SSW,209,11.0,11.0,60,0.00,,,0.00,0.00,VWS V14.00,2013-04-08 02:50:00,
2013-04-07 22:56:00,47.9,34.7,29.83,SW,231,7.0,13.0,60,0.00,,,0.00,0.00,VWS V14.00,2013-04-08 02:56:00,
2013-04-07 23:01:00,47.9,34.7,29.83,SW,225,4.0,14.0,60,0.00,,,0.00,0.00,VWS V14.00,2013-04-08 03:01:00,
2013-04-07 23:06:00,47.8,34.6,29.83,SSW,212,6.0,9.0,60,0.00,,,0.00,0.00,VWS V14.00,2013-04-08 03:06:00,
2013-04-07 23:11:00,47.7,34.5,29.83,SW,219,6.0,13.0,60,0.00,,,0.00,0.00,VWS V14.00,2013-04-08 03:11:00,
2013-04-07 23:16:00,47.7,34.5,29.83,WSW,238,3.0,11.0,60,0.00,,,0.00,0.00,VWS V14.00,2013-04-08 03:16:00,
2013-04-07 23:21:00,47.6,34.4,29.84,WSW,256,0.0,6.0,60,0.00,,,0.00,0.00,VWS V14.00,2013-04-08 03:21:00,
2013-04-07 23:26:00,47.5,35.5,29.84,SW,216,8.0,16.0,63,0.00,,,0.00,0.00,VWS V14.00,2013-04-08 03:26:00,
2013-04-07 23:31:00,47.8,36.6,29.84,West,267,7.0,12.0,65,0.00,,,0.00,0.00,VWS V14.00,2013-04-08 03:31:00,
2013-04-07 23:36:00,48.2,37.4,29.84,WSW,250,11.0,16.0,66,0.00,,,0.00,0.00,VWS V14.00,2013-04-08 03:36:00,
2013-04-07 23:41:00,48.8,38.0,29.84,West,261,24.0,24.0,66,0.00,,,0.00,0.00,VWS V14.00,2013-04-08 03:41:00,
2013-04-07 23:46:00,49.4,38.1,29.83,West,263,6.0,7.0,65,0.00,,,0.00,0.00,VWS V14.00,2013-04-08 03:46:00,
2013-04-07 23:51:00,49.7,38.4,29.84,West,270,4.0,9.0,65,0.00,,,0.00,0.00,VWS V14.00,2013-04-08 03:51:00,
2013-04-07 23:56:00,49.9,38.2,29.84,WNW,288,2.0,9.0,64,0.00,,,0.00,0.00,VWS V14.00,2013-04-08 03:56:00,